Simultaneous Nadir Overpasses (SNOs) Predictions

Prediction of SNOs between NOAA-19 and TERRA Satellite Orbit:

Table of predicted SNOs for the next 14.0 days since TLE Epoch: 2/18/2012
Index Date (NOAA-19) Time (NOAA-19) NOAA-19 Lat,Lon Date (TERRA) Time (TERRA) TERRA Lat,Lon Distance(km) Time Diff (sec)
1 02/20/2012 05:23:34 -69.38, -82.24 02/20/2012 05:24:45 -69.29, -81.49 30.95 71
2 02/20/2012 06:14:24 68.92, 85.67 02/20/2012 06:14:17 68.91, 85.66 1.42 7
3 02/20/2012 07:05:10 -67.82,-105.65 02/20/2012 07:04:03 -67.91,-107.91 95.24 67
4 02/22/2012 10:08:16 -69.00,-152.90 02/22/2012 10:09:09 -69.02,-152.92 1.92 53
5 02/22/2012 10:59:12 68.87, 14.54 02/22/2012 10:58:37 68.86, 14.52 1.69 35
6 02/24/2012 14:53:04 -68.95, 135.97 02/24/2012 14:53:29 -68.96, 135.92 2.58 25
7 02/24/2012 15:44:00 68.81, -56.59 02/24/2012 15:42:57 68.79, -56.65 3.43 63
8 02/26/2012 18:47:00 69.68,-103.51 02/26/2012 18:48:09 69.54,-102.03 59.62 69
9 02/26/2012 19:37:53 -68.94, 64.77 02/26/2012 19:37:48 -68.94, 64.81 1.76 5
10 02/26/2012 20:28:36 68.12,-126.87 02/26/2012 20:27:27 68.16,-128.50 67.65 69
11 02/28/2012 23:31:37 69.05,-173.80 02/28/2012 23:32:36 69.07,-173.73 3.13 59
12 02/29/2012 00:22:41 -68.89, -6.36 02/29/2012 00:22:07 -68.91, -6.30 2.77 34
13 03/02/2012 04:16:25 68.99, 115.08 03/02/2012 04:16:56 68.97, 115.06 3.27 31
14 03/02/2012 05:07:29 -68.84, -77.49 03/02/2012 05:06:26 -68.86, -77.44 3.26 63
